sat.trackr.live / text

‹ back to catalog

STARLINK-5652

NORAD 55334 · 2023-013D

PAYLOAD ACTIVE UNKNOWN

§ Identity

Operator
Country
US
Launch date
2023-01-26
Launch site
AFETR
Launch vehicle
Mass (kg)
RCS (m²)

Purposes: comms

External: N2YO · Heavens-Above · Gunter

§ Orbital elements

Epoch: 2026-09-20T13:16:07.771872Z

Period
94.27 min
Inclination
43.0022°
Eccentricity
0.0001725
Mean motion
15.27567937 rev/d
Perigee alt
481.9 km
Apogee alt
484.3 km
Semi-major
6,861.2 km
B*
5.5816e-5
RAAN
282.9636°
Arg perigee
282.2649°
Mean anomaly
77.8009°
Rev number
20,147

§ Raw data

STARLINK-56521 55334U 23013D   26263.55286773  .00001273  00000+0  55816-4 0  99922 55334  43.0022 282.9636 0001725 282.2649  77.8009 15.27567937201474

JSON: /api/v1/satellites/55334 · /tle

For live sub-satellite position, see the globe view (requires WebGL).

§ Visibility from observer

Set your observer location to see the next 7 days of passes ≥ 10°. The values pass through the URL so the page stays shareable.

No JS? Fill the form by hand. The geolocation button needs JavaScript.